Regional Weather Roundup
Issued by NWS Wakefield, VA

Home | Current Version | Previous Version | Graphics & Text | Print | Product List | Glossary On
Versions: 1 2 3 4 5 6 7 8 9 10 11 12 13 14 15 16 17 18 19 20 21 22 23 24 25 26 27 28 29 30 31 32 33 34 35 36 37 38 39 40 41 42 43 44 45 46 47 48 49 50
000
ASUS41 KAKQ 200315
RWRAKQ

REGIONAL WEATHER ROUNDUP
NATIONAL WEATHER SERVICE WAKEFIELD VA
1100 PM EDT THU OCT 19 2017

Note: "fair" indicates few or no clouds below 12,000 feet with no
significant weather and/or obstructions to visibility. * = Denotes
station may not report precipitation (e.g., rain,snow,etc.),
thunder or fog.

VAZ042-051-052>054-056-200400-
NORTHERN VIRGINIA

CITY           SKY/WX    TMP DP  RH WIND       PRES   REMARKS
WASH NATIONAL  PTCLDY    59  53  80 SW6       30.17R
DULLES         PTCLDY    50  48  93 S3        30.17S
FORT BELVOIR   CLEAR     50  49  95 CALM      30.17R
QUANTICO       CLEAR     54  53  97 NW7       30.18R
FREDERICKSBRG* CLEAR     51  51  98 CALM      30.16F
STAFFORD*      CLEAR     46  46 100 CALM      30.20S
WARRENTON      CLEAR     45  41  86 CALM      30.17R
CULPEPER*      CLEAR     48  45  88 CALM      30.19R
MANASSAS*      CLEAR     50  47  89 S3        30.18R
LEESBURG*      CLEAR     54  50  87 W5        30.18S
WINCHESTER     CLEAR     55  41  58 CALM      30.18S
FRONT ROYAL*   CLEAR     50  45  81 MISG      30.17S
LURAY*         CLEAR     46  45  93 CALM      30.19R
$$

VAZ048-049-060>072-079>083-200400-
CENTRAL AND SOUTH CENTRAL VIRGINIA

CITY           SKY/WX    TMP DP  RH WIND       PRES   REMARKS
RICHMOND       CLEAR     56  46  69 CALM      30.18F
CHESTERFIELD*  NOT AVBL
PETERSBURG*    CLEAR    N/A N/A N/A CALM      30.20S
HANOVER        CLEAR     50  49  96 CALM      30.19S
TAPPAHANNOCK*  CLEAR    N/A N/A N/A CALM      30.19S
QUINTON*       FAIR      50  50 100 CALM      30.18S
CHARLOTTSVILLE CLEAR     55  48  77 W3        30.18S
GORDONSVILLE*  CLEAR     49  48  95 CALM      30.17S
ORANGE*        CLEAR     46  45  93 CALM      30.18S
LOUISA*        CLEAR     52  46  82 CALM      30.17F
BUMPASS*       FAIR      49  49  99 S8        30.17F
FARMVILLE*     CLEAR     52  51  97 CALM      30.19R
CREWE*         FAIR      47  47 100 CALM      30.19S
FORT PICKETT*  FAIR      50  46  84 CALM      30.20S
CHASE CITY*    FAIR      50  46  85 CALM      30.21S
CLARKSVILLE*   FAIR      46  46 100 CALM      30.21S
SOUTH HILL*    CLEAR     45  45 100 CALM      30.27S
LAWRENCEVILLE* FAIR      49  46  92 CALM      30.20S
EMPORIA*       CLEAR     48  48 100 CALM      30.22S
$$

VAZ088>098-200400-
SOUTHEAST VIRGINIA

CITY           SKY/WX    TMP DP  RH WIND       PRES   REMARKS
NORFOLK        CLEAR     59  58  96 S3        30.19S
VIRGINIA BEACH CLEAR     57  54  89 CALM      30.18S
NORFOLK NAVAL  CLEAR     60  57  89 S3        30.20S
WEST POINT*    CLEAR     49  49 100 CALM      30.20S
SALUDA*        FAIR      54  54 100 SW3       30.18S
NEWPORT NEWS   FOG       52  51  97 CALM      30.19S VSB 1/2
LANGLEY AFB    CLEAR     56  56  98 W6        30.18S
FORT EUSTIS    CLEAR     60  53  76 SW3       30.16S
WILLIAMSBURG*  CLEAR     57  55  94 CALM      30.19F
HR EXEC AP*    NOT AVBL
FRANKLIN*      CLEAR     50  48  93 CALM      30.20S
US460-WAKEFLD  CLEAR     52  50  93 CALM      30.19S
$$

VAZ020-022-025-037-045-200400-
WEST CENTRAL AND SOUTHWEST VIRGINIA

CITY           SKY/WX    TMP DP  RH WIND       PRES   REMARKS
STAUNTON*      CLEAR     46  39  78 CALM      30.23R
WAYNESBORO*    CLEAR     62  41  46 W6        30.21S
HOT SPRINGS VA CLEAR     55  35  46 W14G20    30.29S
LYNCHBURG      CLEAR     49  46  90 CALM      30.21F
DANVILLE       CLEAR     48  48 100 CALM      30.23S
SOUTH BOSTON*  FAIR      45  44  95 CALM      30.22S
MARTINSVILLE   CLEAR     46  45  96 CALM      30.26S
ROANOKE        CLEAR     53  46  77 CALM      30.25S
BLACKSBURG     CLEAR     51  43  73 CALM      30.30S
DUBLIN*        CLEAR     56  44  65 SW7       30.29S
MARION*        CLEAR     51  40  66 W10       30.32S
HILLSVILLE*    CLEAR     57  32  39 CALM      30.28S
RICHLANDS*     FAIR      57  -1   9 S3        30.31S
WISE*          PTCLDY    55  43  62 CALM      30.31F
ABINGDON*      CLEAR     51  42  72 CALM      30.30S
$$

MDZ021>025-VAZ099-100-200400-
SOUTHERN MARYLAND AND THE DELMARVA PENINSULA

CITY           SKY/WX    TMP DP  RH WIND       PRES   REMARKS
PATUXENT RIVER PTCLDY    54  49  83 SW5       30.16F
BAY BRIDGE APT CLEAR     61  55  82 S6        30.15S
LEONARDTOWN    NOT AVBL
DOVER          CLEAR     55  52  88 SW6       30.14S
GEORGETOWN     CLEAR     52  49  89 SW3       30.16F
EASTON         CLEAR     55  53  92 CALM      30.19
CAMBRIDGE      CLEAR     52  50  93 CALM      30.16S
SALISBURY      CLEAR     50  49  96 CALM      30.17S
OCEAN CITY     CLEAR     55  53  93 SW6       30.17F FOG
WALLOPS ISLAND CLEAR     60  57  89 SW7       30.18S
ACCOMACK*      CLEAR     57  56  95 SW6       30.18S
$$

NCZ012>017-030>032-200400-
NORTH CENTRAL AND EASTERN NORTH CAROLINA

CITY           SKY/WX    TMP DP  RH WIND       PRES   REMARKS
ROANOKE RAPIDS FAIR      52  52 100 CALM      30.21R
RALEIGH        PTCLDY    50  49  96 CALM      30.23S
ELIZABETH CITY CLEAR     55  55 100 S6        30.20S
AHOSKIE*       CLEAR     51  51 100 CALM      30.21S
EDENTON*       CLEAR     58  55  92 CALM      30.21S
CURRITUCK*     CLEAR     57  56  98 CALM      30.20F
KILL DEVIL HLS CLEAR     63  61  95 CALM      30.19S
MANTEO         CLEAR    N/A N/A N/A CALM      30.20F
CAPE HATTERAS  CLEAR     59  59 100 N3        30.20S
TARBORO*       NOT AVBL
GOLDSBORO      CLEAR     56  53  88 CALM      30.20S FOG
WASHINGTON     CLEAR     56  55  94 CALM      30.21S
GREENVILLE     FOG       54  54 100 CALM      30.22S VSB 1/2
NEW BERN       CLEAR     57  57 100 CALM      30.22S
WILMINGTON     CLEAR     60  58  92 CALM      30.22R
$$

VAZ048-200400-
ELSEWHERE

CITY           SKY/WX    TMP DP  RH WIND       PRES   REMARKS
HARRISBURG PA  PTCLDY    53  50  89 CALM      30.14S
BALTIMORE      PTCLDY    50  49  96 W3        30.15S
ANNAPOLIS      CLEAR     59  56  89 CALM      30.16R
ANDREWS AFB    CLEAR     56  48  76 SW6       30.15S
PHILADELPHIA   CLEAR     61  49  64 SW13      30.13F
HENDERSON NC   CLEAR     47  43  85 CALM      30.22S
GREENSBORO     CLEAR     56  47  71 CALM      30.24R
ROCKY MOUNT    CLEAR     52  52 100 CALM      30.22S FOG
$$

VAZ100-200400-
MARINE

STATION/POSITION TIME  TEMP    WIND        PRES    WAVE   SWELL
                       AIR SEA DIR/SP/G            HT/PER HT/PER
                 (UTC) (F)     (DEG/KT/KT) (MB)    (FT/S) (FT/S)
BRANDYWINE LGT   0242   64     250/ 13/ 14 1021.2S
CAPE MAY NJ      0242   63 65  250/ 12/ 14 1020.4F
LEWES DE         0242   57 65  230/  4/  6 1020.9F
15NM E FENWICK I 0250   67 67  230/ 12/ 14 1021.6F   3/ 9   3/ 9
OCEAN-CITY-INLET 0248   60 67  240/  5/  5 1021.8F
WACHAPREAGUE VA  0248   60 65  260/  3/  5 1021.9F
THOMAS POINT MD  0300   63 68  240/  8/  9   N/A
GOOSES REEF MD   0300   66 68  230/ 10/ 12 1020.2    1
COVE POINT MD    0248   64     170/  5/  5 1022.0F
SOLOMONS ISLAND  0248   62 69  220/  4/  5 1021.1F
BISHOPS HEAD MD  0248   65 65  220/  6/  7 1021.8F
PINEY POINT MD   0236          230/  8/  8   N/A
POTOMAC MD       0300   65 69  220/  8/ 10 1020.9
CAMBRIDGE MD     0248                      1022.0F
LEWISETTA VA     0248          240/  4/  4 1021.5F
RAPPAHANNOCK LGT 0236          200/ 11/ 12 1022.4F
STINGRAY PT      0300   65 69  250/  8/  8 1022.3    1
YORK RVR RNG VA  0248   66     240/  7/  8 1022.5R
YORKTOWN VA      0248   61 70  230/  3/  4 1021.8R
JAMESTOWN VA     0300      69  220/  4/  6   N/A     0
DOMINION TERM VA 0236   65     220/  7/  7 1022.3S
KIPTOPEKE VA     0236      69  200/  9/ 10   N/A
CAPE HENRY VA    0236   63     190/  7/  8   N/A
WILLOUBY STN VA  0236   65     190/  7/  7 1022.1S
S CRANEY ISL VA  0236   64     200/  5/  6 1022.0S
CAPE HENRY BUOY  0300      70                N/A     3/ 9
1ST LANDING BUOY 0300   66 69              1021.9    1/ 4
CAPE CHARLES BUO 0221      70                N/A     3/10
64NM E OF VA BCH 0250   68 68  190/  4/  6 1022.8R   3/ 9   3/ 9
DUCK PIER NC     0236   66 69  210/  5/  6 1022.1F
44100 DUCK FRF   0205      71                N/A     3/ 9
44056 DUCK FRF   0300      70                N/A     3/10
OREGON INLET NC  0236   65 69   CALM  /  1 1022.4F
HATTERAS NC      0236   67 70   20/  2/  2 1022.5F
DIAMOND SHLS NC  0250   74 81   50/  2/  4 1022.3R   4/ 8   3/ 8
CAPE LOOKOUT NC  0300   71      50/  3/  4 1022.4R
$$



USA.gov is the U.S. government's official web portal to all federal, state and local government web resources and services.